Weather in Zhilgorodok

Russia / Saint-Petersburg and Leningrad Oblast     59°33′41″N   29°28′18″E
temp.,
°C
wind,
m/s
gust,
m/s
humid.,
%
clouds,
%
prec.,
mm/h
press.,
hPa
HPBL,
m
17 june, thu
thu1700:00+11w226434 0.0 102022
03:00+10w236983 0.0 102148
06:00+12w26725 0.0 1022157
09:00+17wsw24515 0.0 1023692
12:00+21w34385 0.0 10231369
15:00+23w33345 0.0 10231475
18:00+23sw3340100 0.0 10231261
21:00+17sw22665 0.0 102435
18 june, fri
fri1800:00+14ssw22749 0.0 102417
03:00+13ssw25786 0.0 102490
06:00+15ssw39775 0.0 1024240
09:00+21sw48545 0.0 1023601
12:00+25sw57400 0.0 10221480
15:00+27wsw58330 0.0 10211791
18:00+26wsw48420 0.0 10201603
21:00+20ssw38680 0.0 1020170
19 june, sat
sat1900:00+17sw26770 0.0 1021104
03:00+15sw25890 0.0 102190
06:00+17sw39830 0.0 1021242
09:00+23sw47642 0.0 1021800
12:00+27sw46465 0.0 10201952
15:00+28wsw46395 0.0 10202130
18:00+27wsw35440 0.0 10191970
21:00+22ssw22700 0.0 101937
20 june, sun
sun2000:00+18ssw38760 0.0 1019147
03:00+17ssw26840 0.0 1020102
06:00+18ssw27820 0.0 1019182
09:00+24ssw35611 0.0 1019544
12:00+28sw474512 0.0 10182215
15:00+30sw463729 0.0 10172710
18:00+29w364353 0.0 10161984
21:00+23sw246655 0.0 101771
21 june, mon
mon2100:00+20sw227758 0.0 101726
03:00+21sw2272100 0.0 101851
06:00+21ssw127881 0.0 101847
09:00+25ssw246063 0.0 1018410
12:00+29sw33430 0.0 10182094
15:00+29ssw234899 0.0 10171035
18:00+29sse24465 0.1 1017943
21:00+24se116520 0.1 101711